Regional Weather Roundup
Issued by NWS

Home | Current Version | Previous Version | Text Only | Print | Product List | Glossary Off
Versions: 1 2 3 4 5 6 7 8 9 10 11 12 13 14 15 16 17 18 19 20 21 22 23 24 25 26 27 28 29 30 31 32 33 34 35 36 37 38 39 40 41 42 43 44 45 46 47 48 49 50

000
ASUS43 KDMX 182106
RWRIA

WEATHER ROUNDUP FOR IOWA
NATIONAL WEATHER SERVICE DES MOINES IA
300 PM CST WED JAN 18 2017

NOTE: "FAIR" INDICATES FEW OR NO CLOUDS BELOW 12,000 FEET WITH NO
SIGNIFICANT WEATHER AND/OR OBSTRUCTIONS TO VISIBILITY.

* - THESE STATIONS ARE NOT NWS STATIONS...THUS NOT UNDER NWS
QUALITY CONTROL.  THEY ALSO DO NOT REPORT WEATHER SUCH
AS PRECIPITATION OR FOG.

IAZ001>003-012>014-020>022-031>034-043>046-182200-
   NORTHWEST IOWA

CITY           SKY/WX    TMP DP  RH WIND       PRES   REMARKS
CARROLL *      SUNNY     46  41  81 SW16      29.91S
CHEROKEE *     SUNNY     47  39  73 SW14G20   29.87F
DENISON *      SUNNY     46  41  81 S16       29.88F
LE MARS *      SUNNY     46  41  81 S9G16     29.86S
ORANGE CITY *  SUNNY     45  41  87 S12       29.85S
SHELDON *      SUNNY     45  45 100 S13       29.83S
SIOUX CITY     SUNNY     50  39  66 SW16      29.87F
SPENCER        SUNNY     43  39  86 S15       29.85F
STORM LAKE *   SUNNY     45  41  87 S15       29.88F
$$

IAZ055>058-069>071-079>083-090>094-182200-
   SOUTHWEST IOWA

CITY           SKY/WX    TMP DP  RH WIND       PRES   REMARKS
ATLANTIC *     SUNNY     46  39  76 S15       29.93F
AUDUBON *      SUNNY     46  41  81 S15G21    29.93F
CLARINDA *     SUNNY     46  41  81 S13       29.99F
COUNCIL BLFS * SUNNY     50  39  66 S12       29.91F
CRESTON *      SUNNY     43  37  81 S15G21    29.98S
HARLAN  *      SUNNY     46  41  81 S14G21    29.95S
LAMONI         MOSUNNY   38  35  89 S12       30.01F WCI  30
RED OAK *      SUNNY     46  41  81 S13       29.95F
SHENANDOAH *   SUNNY     48  41  76 S15       29.96F
$$

IAZ047>049-059>061-072>074-084-182200-
   CENTRAL IOWA

CITY           SKY/WX    TMP DP  RH WIND       PRES   REMARKS
AMES           SUNNY     47  40  76 S10       29.95F
ANKENY *       SUNNY     48  36  61 S13       29.97S
BOONE *        SUNNY     46  39  76 SW12      29.93S
CHARITON *     SUNNY     41  37  87 S17G24    30.00S
DES MOINES     MOSUNNY   47  36  65 S15       29.97F
GRINNELL*      SUNNY     42  37  82 S13       29.98F
KNOXVILLE *    SUNNY     45  36  70 SW17      29.98R
MARSHALLTOWN   SUNNY     42  37  82 S10       29.96F
NEWTON *       SUNNY     45  37  76 S12       29.97S
PELLA *        SUNNY     46  37  69 S12       30.00S
PERRY *          N/A     47  42  81 S14G20    29.93F
$$

IAZ004>006-015-016-023>025-035-036-182200-
   NORTH CENTRAL IOWA

CITY           SKY/WX    TMP DP  RH WIND       PRES   REMARKS
ALGONA *       SUNNY     43  39  87 S14       29.89S
CLARION *      SUNNY     41  41 100 S13       29.92S
ESTHERVILLE    SUNNY     40  38  93 S13       29.84F WCI  32
FORT DODGE *   SUNNY     45  37  76 S13G18    29.92F
MASON CITY     SUNNY     35  32  88 S10       29.92S WCI  27
FOREST CITY *    N/A     39  39 100 S8        29.90S WCI  34
WEBSTER CITY * SUNNY     43  41  93 S9        29.91F
IOWA FALLS *     N/A     39  37  91 S9        29.94F WCI  33
$$

IAZ007>011-017>019-026>030-037>042-050>054-066-182200-
   NORTHEAST IOWA

CITY           SKY/WX    TMP DP  RH WIND       PRES   REMARKS
CEDAR RAPIDS   CLOUDY    36  34  92 S10       30.00F FOG     WCI  28
CHARLES CITY * PTSUNNY   32  32 100 S9        29.95S FOG     WCI  24
CLINTON *      CLOUDY    36  33  89 SW12      30.05S WCI  28
DECORAH *      CLOUDY    32  30  93 S10G16    29.94F FOG     WCI  24
DUBUQUE        CLOUDY    32  31  96 SW15      30.01S FOG     WCI  22
MONTICELLO *   CLOUDY    34  32  93 S8        30.02S WCI  27
OELWEIN *      CLOUDY    32  32 100 S14       29.98S FOG     WCI  22
WATERLOO       MOSUNNY   36  33  89 S10       29.97F WCI  28
$$

IAZ064-065-067-068-078-182200-
   EAST CENTRAL IOWA

CITY           SKY/WX    TMP DP  RH WIND       PRES   REMARKS
DAVENPORT      CLOUDY    38  33  82 SW10      30.05F WCI  31
IOWA CITY      CLOUDY    42  36  79 S7        30.04F
MUSCATINE *    MOSUNNY   43  36  75 SW9       30.04F
QUAD CITIES    MOSUNNY   41  34  76 SW7       30.04F
$$

IAZ062-063-075>077-085>089-095>099-182200-
   SOUTHEAST IOWA

CITY           SKY/WX    TMP DP  RH WIND       PRES   REMARKS
BURLINGTON     SUNNY     42  38  85 S12       30.05F
FAIRFIELD *    SUNNY     43  36  75 S12       30.02F
FORT MADISON * SUNNY     45  37  76 S6        30.06S
KEOKUK *       SUNNY     43  36  75 S13       30.06S
OSKALOOSA *      N/A     45  38  78 S10       30.01S
OTTUMWA        SUNNY     45  37  73 S12       30.01F HAZE
WASHINGTON *   SUNNY     43  37  81 S13       30.03F
$$

ABBREVIATIONS USED IN REMARKS
   TC - TEMPERATURES IN CELSIUS
  WCI - WIND CHILL INDEX
   HX - HEAT INDEX
  VSB - VISIBILITY
$$





USA.gov is the U.S. government's official web portal to all federal, state and local government web resources and services.